Zurück zum Katalog

STARLINK-11686

AktivKommunikationVLEO
NORAD 64233·PAYLOAD·🇺🇸 United States

Gestartet Jun 3, 2025 von Cape Canaveral Space Force Station

Loading…

Nächste Überflüge (nächste 24 Stunden)

TLE

AktuellSource: CelesTrak SupGP

Epoche: Sep 15, 2026, 04:00 UTC

1 64233C 25119A   26258.16715278  .00086499  00000+0  67162-3 0  2584
2 64233  43.0003 147.3049 0001621 272.9281   3.3198 15.70803206    16

Verfolge STARLINK-11686 in Echtzeit mit AllMySat

Download on the App Store